Weather History for Hartford, CT

Change the Weather History Date:

Monday, October 10, 2011

  Actual Average Record
Temperature  
Mean Temperature 67 °F -  
Max Temperature 84 °F 65 °F 89 °F (1949)
Min Temperature 50 °F 42 °F 26 °F (1980)
Cooling Degree Days 2    
Growing Degree Days 17 (Base 50)    
Moisture  
Dew Point 53 °F    
Average Humidity 81    
Maximum Humidity 100    
Minimum Humidity 28    
Precipitation  
Precipitation 0.00 in - - ()
Sea Level Pressure  
Sea Level Pressure 30.21 in    
Wind  
Wind Speed 1 mph (NW)    
Max Wind Speed 13 mph    
Max Gust Speed 18 mph    
Visibility 5 miles    
Events Fog    
Averages and records for this station are not official NWS values.
T = Trace of Precipitation, MM = Missing Value Source: NWS Daily Summary

Daily Weather History Graph

Daily Weather History Graph

Search for Another Location

Airport:

Trip Planner

Search our weather history database for the weather conditions in past years. The results will help you decide how hot, cold, wet, or windy it might be!

Date:

Astronomy

Oct. 10, 2011 Rise Set
Actual Time 6:56 AM EDT 6:17 PM EDT
Civil Twilight 6:29 AM EDT 6:45 PM EDT
Nautical Twilight 5:56 AM EDT 7:17 PM EDT
Astronomical Twilight 5:24 AM EDT 7:49 PM EDT
Moon 5:20 PM EDT (10/10) 5:35 AM EDT (10/10)
Length of Visible Light 12h 16m
Length of Day
11h 20m
Waxing Gibbous, 98% of the Moon is Illuminated
Oct 10
Waxing Gibbous
Oct 11
Full
Oct 19
Last Quarter
Oct 26
New
Nov 2
First Quarter

Hourly Weather History & Observations

Time (EDT) Temp. Heat Index Dew Point Humidity Pressure Visibility Wind Dir Wind Speed Gust Speed Precip Events Conditions
12:27 AM 57.2 °F - 55.4 °F 94% 30.26 in 1.8 mi Calm Calm - N/A   Clear
12:37 AM 57.2 °F - 55.4 °F 94% 30.26 in 3.0 mi Calm Calm - N/A   Clear
12:49 AM 55.4 °F - 53.6 °F 94% 30.25 in 1.8 mi Calm Calm - N/A   Clear
12:53 AM 55.9 °F - 54.0 °F 93% 30.25 in 1.8 mi Calm Calm - N/A   Clear
12:58 AM 57.2 °F - 53.6 °F 88% 30.25 in 3.0 mi Calm Calm - N/A   Clear
1:27 AM 55.4 °F - 53.6 °F 94% 30.25 in 1.8 mi Calm Calm - N/A   Clear
1:40 AM 55.4 °F - 53.6 °F 94% 30.25 in 4.0 mi Calm Calm - N/A   Clear
1:45 AM 55.4 °F - 53.6 °F 94% 30.25 in 1.8 mi Calm Calm - N/A   Clear
1:53 AM 55.0 °F - 53.1 °F 93% 30.25 in 0.8 mi Calm Calm - N/A   Clear
2:16 AM 53.6 °F - 53.6 °F 100% 30.24 in 0.5 mi Calm Calm - N/A Fog Fog
2:26 AM 53.6 °F - 51.8 °F 94% 30.24 in 1.2 mi Calm Calm - N/A   Partly Cloudy
2:32 AM 53.6 °F - 51.8 °F 94% 30.24 in 3.0 mi Calm Calm - N/A   Clear
2:53 AM 53.6 °F - 53.6 °F 100% 30.24 in 5.0 mi Calm Calm - N/A   Clear
2:58 AM 53.6 °F - 51.8 °F 94% 30.23 in 1.5 mi Calm Calm - N/A   Clear
3:00 AM 53.6 °F - 50.0 °F 88% 30.23 in 0.8 mi Calm Calm - N/A   Mist
3:38 AM 53.6 °F - 51.8 °F 94% 30.23 in 1.2 mi Calm Calm - N/A   Partly Cloudy
3:41 AM 53.6 °F - 51.8 °F 94% 30.23 in 3.0 mi Calm Calm - N/A   Partly Cloudy
3:45 AM 53.6 °F - 51.8 °F 94% 30.23 in 1.0 mi Calm Calm - N/A   Mist
3:53 AM 54.0 °F - 51.1 °F 90% 30.23 in 0.5 mi Calm Calm - N/A Fog Fog
3:56 AM 53.6 °F - 51.8 °F 94% 30.23 in 1.2 mi Calm Calm - N/A   Clear
4:00 AM 53.6 °F - 51.8 °F 94% 30.24 in 3.0 mi Calm Calm - N/A   Clear
4:04 AM 53.6 °F - 51.8 °F 94% 30.24 in 1.2 mi Calm Calm - N/A   Clear
4:12 AM 53.6 °F - 51.8 °F 94% 30.24 in 0.8 mi Calm Calm - N/A   Mist
4:53 AM 50.0 °F - 48.9 °F 96% 30.24 in 0.2 mi Calm Calm - N/A Fog Fog
5:28 AM 51.8 °F - 50.0 °F 94% 30.23 in 1.2 mi Calm Calm - N/A   Partly Cloudy
5:31 AM 51.8 °F - 50.0 °F 94% 30.23 in 0.8 mi Calm Calm - N/A   Mist
5:53 AM 51.8 °F - 50.0 °F 94% 30.23 in 10.0 mi Calm Calm - N/A   Clear
6:22 AM 51.8 °F - 48.2 °F 88% 30.24 in 6.0 mi Calm Calm - N/A   Partly Cloudy
6:53 AM 52.0 °F - 48.9 °F 89% 30.24 in 6.0 mi Calm Calm - N/A   Partly Cloudy
7:53 AM 54.0 °F - 52.0 °F 93% 30.25 in 4.0 mi Calm Calm - N/A   Clear
7:56 AM 53.6 °F - 53.6 °F 100% 30.25 in 8.0 mi Calm Calm - N/A   Clear
8:53 AM 57.9 °F - 55.0 °F 90% 30.25 in 8.0 mi Calm Calm - N/A   Clear
9:53 AM 66.0 °F - 55.9 °F 70% 30.25 in 7.0 mi Calm Calm - N/A   Clear
10:53 AM 73.0 °F - 57.0 °F 57% 30.22 in 10.0 mi Calm Calm - N/A   Clear
11:53 AM 79.0 °F - 57.0 °F 47% 30.20 in 10.0 mi Calm Calm - N/A   Clear
12:53 PM 82.9 °F 81.9 °F 54.0 °F 37% 30.18 in 10.0 mi NNW 8.1 mph - N/A   Clear
1:53 PM 84.0 °F - 50.0 °F 31% 30.14 in 10.0 mi WNW 10.4 mph - N/A   Clear
2:53 PM 84.9 °F - 48.0 °F 28% 30.13 in 10.0 mi NNW 6.9 mph - N/A   Clear
3:53 PM 84.0 °F - 48.0 °F 28% 30.12 in 10.0 mi NNW 12.7 mph 18.4 mph N/A   Clear
4:53 PM 82.9 °F - 48.9 °F 31% 30.11 in 10.0 mi NW 6.9 mph 17.3 mph N/A   Clear
5:53 PM 80.1 °F - 52.0 °F 38% 30.11 in 10.0 mi NW 8.1 mph - N/A   Clear
6:53 PM 77.0 °F - 53.1 °F 43% 30.12 in 10.0 mi NW 3.5 mph - N/A   Clear
7:53 PM 66.0 °F - 57.0 °F 73% 30.12 in 10.0 mi Calm Calm - N/A   Clear
8:53 PM 64.0 °F - 57.9 °F 80% 30.13 in 10.0 mi Calm Calm - N/A   Clear
9:53 PM 64.0 °F - 57.9 °F 80% 30.13 in 10.0 mi Calm Calm - N/A   Clear
10:53 PM 62.1 °F - 57.9 °F 86% 30.14 in 10.0 mi Calm Calm - N/A   Clear
11:53 PM 60.1 °F - 57.0 °F 90% 30.15 in 7.0 mi Calm Calm - N/A   Clear